TimeEDT,TemperatureF,Dew PointF,Humidity,Sea Level PressureIn,VisibilityMPH,Wind Direction,Wind SpeedMPH,Gust SpeedMPH,PrecipitationIn,Events,Conditions,WindDirDegrees,DateUTC
12:15 AM,64.2,59.9,86,30.11,10.0,SSW,8.1,-,N/A,,Clear,200,2013-04-10 04:15:00
12:35 AM,64.6,59.9,85,30.11,10.0,SW,10.4,-,N/A,,Clear,220,2013-04-10 04:35:00
12:55 AM,65.3,59.7,82,30.10,10.0,SW,10.4,-,N/A,,Clear,220,2013-04-10 04:55:00
1:15 AM,65.3,59.4,81,30.09,10.0,SW,11.5,-,N/A,,Clear,220,2013-04-10 05:15:00
1:35 AM,65.5,59.4,81,30.09,10.0,SW,11.5,-,N/A,,Clear,220,2013-04-10 05:35:00
1:55 AM,65.7,59.2,80,30.08,10.0,SW,10.4,-,N/A,,Clear,220,2013-04-10 05:55:00
2:15 AM,65.3,59.2,81,30.08,10.0,SW,10.4,-,N/A,,Clear,220,2013-04-10 06:15:00
2:35 AM,65.3,59.4,81,30.08,10.0,SW,10.4,-,N/A,,Clear,230,2013-04-10 06:35:00
2:55 AM,64.9,59.4,82,30.07,10.0,SW,10.4,-,N/A,,Clear,220,2013-04-10 06:55:00
3:15 AM,64.6,59.4,83,30.06,10.0,SW,9.2,-,N/A,,Clear,220,2013-04-10 07:15:00
3:35 AM,63.9,59.4,85,30.06,10.0,SSW,9.2,-,N/A,,Clear,210,2013-04-10 07:35:00
3:55 AM,63.5,59.5,87,30.06,10.0,SSW,6.9,-,N/A,,Clear,210,2013-04-10 07:55:00
4:15 AM,63.1,59.5,88,30.06,10.0,SSW,8.1,-,N/A,,Clear,210,2013-04-10 08:15:00
4:35 AM,63.0,59.5,89,30.06,10.0,SW,6.9,-,N/A,,Clear,220,2013-04-10 08:35:00
4:55 AM,63.5,59.5,87,30.06,10.0,SW,9.2,-,N/A,,Clear,230,2013-04-10 08:55:00
5:15 AM,63.9,59.5,86,30.06,10.0,SW,10.4,-,N/A,,Clear,230,2013-04-10 09:15:00
5:35 AM,63.9,59.9,87,30.07,10.0,SW,10.4,-,N/A,,Clear,230,2013-04-10 09:35:00
5:55 AM,64.4,59.9,85,30.07,10.0,WSW,10.4,-,N/A,,Clear,240,2013-04-10 09:55:00
6:15 AM,64.2,59.9,86,30.08,10.0,WSW,10.4,-,N/A,,Clear,240,2013-04-10 10:15:00
6:35 AM,63.9,59.9,87,30.09,10.0,West,9.2,-,N/A,,Clear,260,2013-04-10 10:35:00
6:55 AM,63.9,59.9,87,30.10,10.0,WSW,8.1,-,N/A,,Clear,250,2013-04-10 10:55:00
7:15 AM,64.4,59.9,85,30.10,10.0,WSW,9.2,-,N/A,,Clear,240,2013-04-10 11:15:00
7:35 AM,64.9,60.1,84,30.10,10.0,WSW,9.2,-,N/A,,Clear,240,2013-04-10 11:35:00
7:55 AM,65.8,60.3,82,30.11,10.0,WSW,10.4,-,N/A,,Clear,240,2013-04-10 11:55:00
8:15 AM,67.1,60.8,80,30.10,10.0,WSW,8.1,-,N/A,,Clear,250,2013-04-10 12:15:00
8:35 AM,68.7,60.8,76,30.10,10.0,WSW,9.2,-,N/A,,Clear,250,2013-04-10 12:35:00
8:55 AM,69.6,61.0,74,30.10,10.0,WSW,10.4,-,N/A,,Clear,250,2013-04-10 12:55:00
9:15 AM,71.4,61.3,70,30.10,10.0,WSW,10.4,-,N/A,,Clear,250,2013-04-10 13:15:00
9:35 AM,72.5,61.5,68,30.10,10.0,West,10.4,-,N/A,,Clear,260,2013-04-10 13:35:00
9:55 AM,73.9,61.5,65,30.10,10.0,WSW,10.4,18.4,N/A,,Clear,240,2013-04-10 13:55:00
10:15 AM,74.5,61.5,64,30.10,10.0,WSW,12.7,-,N/A,,Clear,240,2013-04-10 14:15:00
10:35 AM,76.1,61.7,61,30.10,10.0,WSW,10.4,-,N/A,,Clear,240,2013-04-10 14:35:00
10:55 AM,77.0,61.5,59,30.10,10.0,WSW,10.4,-,N/A,,Clear,240,2013-04-10 14:55:00
11:15 AM,78.3,61.7,57,30.10,10.0,WSW,11.5,-,N/A,,Clear,250,2013-04-10 15:15:00
11:35 AM,78.6,61.3,55,30.09,10.0,SW,9.2,-,N/A,,Clear,230,2013-04-10 15:35:00
11:55 AM,79.5,61.7,54,30.08,10.0,SW,9.2,-,N/A,,Clear,230,2013-04-10 15:55:00
12:15 PM,79.0,61.5,55,30.07,10.0,SW,9.2,-,N/A,,Clear,230,2013-04-10 16:15:00
12:35 PM,80.2,61.3,52,30.06,10.0,SW,10.4,-,N/A,,Clear,230,2013-04-10 16:35:00
12:55 PM,80.8,61.3,51,30.06,10.0,WSW,11.5,-,N/A,,Clear,240,2013-04-10 16:55:00
1:15 PM,81.3,61.5,51,30.05,10.0,SSW,9.2,-,N/A,,Clear,210,2013-04-10 17:15:00
1:35 PM,80.4,61.7,53,30.04,10.0,SW,6.9,-,N/A,,Clear,220,2013-04-10 17:35:00
1:55 PM,80.6,62.4,54,30.04,10.0,South,11.5,16.1,N/A,,Clear,190,2013-04-10 17:55:00
2:15 PM,79.7,63.0,56,30.03,10.0,South,12.7,16.1,N/A,,Clear,190,2013-04-10 18:15:00
2:35 PM,76.8,63.1,63,30.03,10.0,South,18.4,-,N/A,,Clear,190,2013-04-10 18:35:00
2:55 PM,76.1,62.8,63,30.03,10.0,SSW,17.3,24.2,N/A,,Clear,200,2013-04-10 18:55:00
3:15 PM,77.4,62.6,60,30.02,10.0,SSW,16.1,20.7,N/A,,Clear,210,2013-04-10 19:15:00
3:35 PM,78.4,63.1,59,30.01,10.0,SW,11.5,19.6,N/A,,Clear,220,2013-04-10 19:35:00
3:55 PM,78.1,63.1,60,30.00,10.0,South,16.1,-,N/A,,Clear,190,2013-04-10 19:55:00
4:15 PM,77.2,63.5,63,29.99,10.0,South,18.4,-,N/A,,Clear,190,2013-04-10 20:15:00
4:35 PM,76.8,63.5,63,29.99,10.0,South,17.3,24.2,N/A,,Clear,180,2013-04-10 20:35:00
4:55 PM,75.7,63.1,65,29.98,10.0,South,18.4,-,N/A,,Clear,190,2013-04-10 20:55:00
5:15 PM,75.4,62.8,65,29.98,10.0,South,20.7,-,N/A,,Clear,190,2013-04-10 21:15:00
5:35 PM,75.4,62.6,64,29.98,10.0,South,19.6,-,N/A,,Clear,190,2013-04-10 21:35:00
5:55 PM,74.7,62.2,65,29.97,10.0,SSW,17.3,-,N/A,,Clear,200,2013-04-10 21:55:00
6:15 PM,73.9,62.6,68,29.97,10.0,SSW,17.3,-,N/A,,Clear,200,2013-04-10 22:15:00
6:35 PM,73.2,62.6,69,29.97,10.0,SSW,17.3,-,N/A,,Clear,200,2013-04-10 22:35:00
6:55 PM,72.1,62.1,70,29.97,10.0,SSW,16.1,-,N/A,,Clear,200,2013-04-10 22:55:00
7:15 PM,71.2,61.7,72,29.98,10.0,SSW,11.5,-,N/A,,Clear,210,2013-04-10 23:15:00
7:35 PM,71.8,60.8,68,29.97,10.0,SW,15.0,-,N/A,,Clear,220,2013-04-10 23:35:00
7:55 PM,71.1,59.9,68,29.97,10.0,SSW,17.3,-,N/A,,Clear,210,2013-04-10 23:55:00
8:15 PM,71.1,59.2,66,29.97,10.0,SW,19.6,-,N/A,,Clear,220,2013-04-11 00:15:00
8:35 PM,70.5,59.0,67,29.97,10.0,SW,15.0,-,N/A,,Clear,220,2013-04-11 00:35:00
8:55 PM,69.8,59.0,68,29.98,10.0,SW,17.3,-,N/A,,Clear,230,2013-04-11 00:55:00
9:15 PM,69.8,59.4,69,29.98,10.0,SW,17.3,-,N/A,,Clear,220,2013-04-11 01:15:00
9:35 PM,69.3,60.1,72,29.98,10.0,SW,16.1,-,N/A,,Clear,220,2013-04-11 01:35:00
9:55 PM,69.1,60.1,73,29.98,10.0,SW,16.1,-,N/A,,Clear,220,2013-04-11 01:55:00
10:15 PM,68.9,59.9,73,29.98,10.0,SW,16.1,-,N/A,,Clear,220,2013-04-11 02:15:00
10:35 PM,68.9,59.2,71,29.98,10.0,SW,16.1,-,N/A,,Clear,220,2013-04-11 02:35:00
10:55 PM,68.7,59.2,72,29.98,10.0,SW,17.3,-,N/A,,Clear,220,2013-04-11 02:55:00
11:15 PM,69.1,59.0,70,29.99,10.0,SW,15.0,-,N/A,,Clear,230,2013-04-11 03:15:00
11:35 PM,69.3,59.0,70,30.00,10.0,SW,16.1,-,N/A,,Clear,230,2013-04-11 03:35:00
11:55 PM,68.5,59.9,74,30.01,10.0,SW,17.3,-,N/A,,Clear,230,2013-04-11 03:55:00